When you browse on this site, cookies collect data to enhance your experience and personalize the content and advertising you see.
Visit our Privacy Policy to learn more. By continuing to use the site, you agree to this use of cookies and data.

Hourly Weather Puerto Ayacucho

Today, 26 September, Saturday

Time Temperature Precipitation Wind Pressure Humidity
00:00 +26°C° 0.5 mm 1 mps 752 mmHg 92%
01:00 +26°C° 0.5 mm 1 mps 751 mmHg 93%
02:00 +25°C° 0.1 mm 1 mps 751 mmHg 93%
03:00 +25°C° 0.1 mm 1 mps 751 mmHg 93%
04:00 +25°C° 0.1 mm 1 mps 751 mmHg 94%
05:00 +25°C° 0.1 mm 1 mps 751 mmHg 92%
06:00 +26°C° 0.1 mm 1 mps 752 mmHg 90%
07:00 +27°C° 0.1 mm 1 mps 752 mmHg 89%
08:00 +29°C° 0 mm 2 mps 752 mmHg 81%
09:00 +31°C° 0 mm 3 mps 753 mmHg 74%
10:00 +33°C° 0 mm 3 mps 753 mmHg 67%
11:00 +34°C° 0.2 mm 3 mps 752 mmHg 67%
12:00 +34°C° 0.2 mm 3 mps 750 mmHg 67%
13:00 +34°C° 0.2 mm 3 mps 749 mmHg 67%
14:00 +33°C° 1.6 mm 3 mps 749 mmHg 72%
15:00 +30°C° 1.6 mm 3 mps 748 mmHg 78%
16:00 +29°C° 1.6 mm 2 mps 748 mmHg 83%
17:00 +28°C° 0.2 mm 2 mps 749 mmHg 85%
18:00 +28°C° 0.2 mm 2 mps 749 mmHg 87%
19:00 +27°C° 0.2 mm 2 mps 749 mmHg 89%
20:00 +27°C° 0 mm 2 mps 750 mmHg 89%
21:00 +27°C° 0 mm 1 mps 750 mmHg 89%
22:00 +27°C° 0 mm 1 mps 750 mmHg 88%
23:00 +27°C° 0 mm 1 mps 750 mmHg 89%

Tomorrow, 27 September, Sunday

Time Temperature Precipitation Wind Pressure Humidity
00:00 +26°C° 0 mm 1 mps 750 mmHg 91%
01:00 +26°C° 0 mm 1 mps 749 mmHg 92%
02:00 +26°C° 0 mm 1 mps 749 mmHg 92%
03:00 +26°C° 0 mm 1 mps 749 mmHg 92%
04:00 +26°C° 0 mm 1 mps 749 mmHg 93%
05:00 +26°C° 0 mm 1 mps 749 mmHg 91%
06:00 +27°C° 0 mm 1 mps 750 mmHg 89%
07:00 +27°C° 0 mm 1 mps 750 mmHg 88%
08:00 +29°C° 0 mm 1 mps 750 mmHg 80%
09:00 +31°C° 0 mm 1 mps 750 mmHg 73%
10:00 +33°C° 0 mm 1 mps 751 mmHg 65%
11:00 +34°C° 0.1 mm 2 mps 750 mmHg 64%
12:00 +35°C° 0.1 mm 2 mps 749 mmHg 63%
13:00 +35°C° 0.1 mm 2 mps 748 mmHg 62%
14:00 +34°C° 1.1 mm 1 mps 748 mmHg 64%
15:00 +33°C° 1.1 mm 1 mps 747 mmHg 67%
16:00 +33°C° 1.1 mm 1 mps 747 mmHg 70%
17:00 +31°C° 0.6 mm 1 mps 747 mmHg 75%
18:00 +29°C° 0.6 mm 2 mps 748 mmHg 80%
19:00 +28°C° 0.6 mm 2 mps 749 mmHg 86%
20:00 +27°C° 0.4 mm 1 mps 749 mmHg 87%
21:00 +27°C° 0.4 mm 1 mps 749 mmHg 88%
22:00 +25°C° 0.4 mm 0 mps 749 mmHg 89%
23:00 +25°C° 0 mm 0 mps 749 mmHg 89%

Day after tomorrow, 28 September, Monday

Time Temperature Precipitation Wind Pressure Humidity
00:00 +25°C° 0 mm 0 mps 749 mmHg 90%
01:00 +24°C° 0 mm 0 mps 748 mmHg 90%
02:00 +24°C° 0 mm 0 mps 748 mmHg 90%
03:00 +26°C° 0 mm 1 mps 748 mmHg 91%
04:00 +26°C° 0 mm 1 mps 748 mmHg 91%
05:00 +26°C° 0 mm 1 mps 748 mmHg 90%
06:00 +27°C° 0 mm 1 mps 749 mmHg 88%
07:00 +27°C° 0 mm 1 mps 750 mmHg 87%
08:00 +29°C° 0 mm 1 mps 750 mmHg 81%
09:00 +31°C° 0 mm 1 mps 750 mmHg 75%
10:00 +32°C° 0 mm 1 mps 750 mmHg 69%
11:00 +33°C° 0.2 mm 1 mps 750 mmHg 66%
12:00 +33°C° 0.2 mm 1 mps 749 mmHg 64%
13:00 +34°C° 0.2 mm 1 mps 748 mmHg 61%
14:00 +33°C° 1.1 mm 1 mps 748 mmHg 66%
15:00 +32°C° 1.1 mm 1 mps 747 mmHg 72%
16:00 +30°C° 1.1 mm 2 mps 747 mmHg 78%
17:00 +29°C° 0.2 mm 2 mps 747 mmHg 81%
18:00 +28°C° 0.2 mm 2 mps 748 mmHg 84%
19:00 +27°C° 0.2 mm 2 mps 748 mmHg 87%
20:00 +27°C° 0.1 mm 2 mps 749 mmHg 87%
21:00 +27°C° 0.1 mm 1 mps 749 mmHg 87%
22:00 +26°C° 0.1 mm 1 mps 750 mmHg 88%
23:00 +26°C° 1.5 mm 2 mps 750 mmHg 89%

29 September, Tuesday

Time Temperature Precipitation Wind Pressure Humidity
00:00 +25°C° 1.5 mm 3 mps 750 mmHg 91%
01:00 +25°C° 1.5 mm 4 mps 750 mmHg 92%
02:00 +25°C° 2.3 mm 3 mps 750 mmHg 93%
03:00 +24°C° 2.3 mm 3 mps 749 mmHg 94%
04:00 +24°C° 2.3 mm 2 mps 749 mmHg 95%
05:00 +24°C° 1.1 mm 2 mps 750 mmHg 95%
06:00 +24°C° 1.1 mm 1 mps 751 mmHg 95%
07:00 +22°C° 1.1 mm 0 mps 752 mmHg 94%
08:00 +24°C° 0.4 mm 1 mps 752 mmHg 94%
09:00 +25°C° 0.4 mm 1 mps 752 mmHg 93%
10:00 +25°C° 0.4 mm 2 mps 752 mmHg 93%
11:00 +26°C° 0 mm 1 mps 751 mmHg 89%
12:00 +26°C° 0 mm 1 mps 750 mmHg 85%
13:00 +25°C° 0 mm 0 mps 750 mmHg 81%
14:00 +27°C° 0 mm 1 mps 749 mmHg 81%
15:00 +27°C° 0 mm 1 mps 749 mmHg 81%
16:00 +28°C° 0 mm 1 mps 748 mmHg 81%
17:00 +27°C° 0 mm 1 mps 749 mmHg 83%
18:00 +26°C° 0 mm 1 mps 749 mmHg 85%
19:00 +26°C° 0 mm 1 mps 750 mmHg 87%
20:00 +25°C° 0 mm 1 mps 750 mmHg 88%
21:00 +25°C° 0 mm 1 mps 750 mmHg 88%
22:00 +25°C° 0 mm 1 mps 751 mmHg 89%
23:00 +25°C° 0 mm 1 mps 750 mmHg 90%

30 September, Wednesday

Time Temperature Precipitation Wind Pressure Humidity
00:00 +24°C° 0 mm 1 mps 750 mmHg 91%
01:00 +24°C° 0 mm 1 mps 750 mmHg 91%
02:00 +24°C° 0.1 mm 1 mps 750 mmHg 92%
03:00 +24°C° 0.1 mm 1 mps 750 mmHg 93%
04:00 +24°C° 0.1 mm 1 mps 750 mmHg 93%
05:00 +25°C° 0.1 mm 1 mps 750 mmHg 91%
06:00 +26°C° 0.1 mm 1 mps 751 mmHg 89%
07:00 +27°C° 0.1 mm 1 mps 752 mmHg 87%
08:00 +28°C° 0 mm 2 mps 752 mmHg 82%
09:00 +30°C° 0 mm 2 mps 752 mmHg 76%
10:00 +31°C° 0 mm 2 mps 752 mmHg 71%
11:00 +32°C° 0.3 mm 2 mps 751 mmHg 69%
12:00 +32°C° 0.3 mm 2 mps 750 mmHg 68%
13:00 +34°C° 0.3 mm 2 mps 749 mmHg 67%
14:00 +34°C° 1 mm 2 mps 749 mmHg 69%
15:00 +32°C° 1 mm 1 mps 748 mmHg 72%
16:00 +32°C° 1 mm 1 mps 748 mmHg 74%
17:00 +31°C° 0.4 mm 1 mps 748 mmHg 78%
18:00 +29°C° 0.4 mm 1 mps 749 mmHg 82%
19:00 +28°C° 0.4 mm 1 mps 749 mmHg 86%
20:00 +27°C° 0.2 mm 1 mps 750 mmHg 86%
21:00 +27°C° 0.2 mm 1 mps 750 mmHg 87%
22:00 +27°C° 0.2 mm 1 mps 751 mmHg 88%
23:00 +26°C° 0.1 mm 1 mps 750 mmHg 89%

1 October, Thursday

Time Temperature Precipitation Wind Pressure Humidity
00:00 +26°C° 0.1 mm 1 mps 750 mmHg 90%
01:00 +26°C° 0.1 mm 1 mps 749 mmHg 91%
02:00 +26°C° 0.1 mm 1 mps 749 mmHg 91%
03:00 +25°C° 0.1 mm 1 mps 749 mmHg 92%
04:00 +25°C° 0.1 mm 1 mps 749 mmHg 93%
05:00 +25°C° 0 mm 1 mps 750 mmHg 92%
06:00 +24°C° 0 mm 0 mps 750 mmHg 92%
07:00 +24°C° 0 mm 0 mps 751 mmHg 92%
08:00 +26°C° 0 mm 0 mps 751 mmHg 85%
09:00 +27°C° 0 mm 0 mps 751 mmHg 78%
10:00 +31°C° 0 mm 1 mps 751 mmHg 72%
11:00 +31°C° 0.3 mm 1 mps 750 mmHg 71%
12:00 +32°C° 0.3 mm 1 mps 749 mmHg 70%
13:00 +32°C° 0.3 mm 2 mps 748 mmHg 69%
14:00 +32°C° 0.5 mm 1 mps 747 mmHg 69%
15:00 +32°C° 0.5 mm 1 mps 747 mmHg 70%
16:00 +33°C° 0.5 mm 1 mps 747 mmHg 71%
17:00 +31°C° 0.2 mm 1 mps 747 mmHg 74%
18:00 +30°C° 0.2 mm 1 mps 748 mmHg 78%
19:00 +26°C° 0.2 mm 0 mps 749 mmHg 82%
20:00 +28°C° 1.2 mm 1 mps 749 mmHg 84%
21:00 +27°C° 1.2 mm 1 mps 749 mmHg 87%
22:00 +27°C° 1.2 mm 1 mps 750 mmHg 89%
23:00 +27°C° 2.4 mm 1 mps 749 mmHg 91%
Show more